Weather History for Kill Devil Hills, NC

Change the Weather History Date:

Saturday, February 23, 2013

  Actual Average (KMQI) Record (KMQI)
Temperature  
Mean Temperature 50 °F -  
Max Temperature 56 °F 51 °F 74 °F (1975)
Min Temperature 43 °F 38 °F 22 °F (1968)
Degree Days  
Heating Degree Days 16    
Moisture  
Dew Point 47 °F    
Average Humidity 97    
Maximum Humidity 99    
Minimum Humidity 96    
Precipitation  
Precipitation 0.66 in - - ()
Sea Level Pressure  
Sea Level Pressure 29.90 in    
Wind  
Wind Speed 6 mph (SW)    
Max Wind Speed 12 mph    
Max Gust Speed 23 mph    
Visibility 3 miles    
Events Fog , Rain    
Averages and records for this station are not official NWS values.
T = Trace of Precipitation, MM = Missing Value Source: NWS Daily Summary

Daily Weather History Graph

Daily Weather History Graph

Search for Another Location

Airport:

Trip Planner

Search our weather history database for the weather conditions in past years. The results will help you decide how hot, cold, wet, or windy it might be!

Date:

Astronomy

Feb. 23, 2013 Rise Set
Actual Time 6:40 AM EST 5:52 PM EST
Civil Twilight 6:14 AM EST 6:18 PM EST
Nautical Twilight 5:44 AM EST 6:47 PM EST
Astronomical Twilight 5:14 AM EST 7:17 PM EST
Moon 4:02 PM EST (2/23) 4:58 AM EST (2/23)
Length of Visible Light 12h 03m
Length of Day
11h 11m
Waxing Gibbous, 95% of the Moon is Illuminated
Feb 23
Waxing Gibbous
Feb 25
Full
Mar 4
Last Quarter
Mar 11
New
Mar 19
First Quarter

Hourly Weather History & Observations

Time (EST) Temp. Windchill Dew Point Humidity Pressure Visibility Wind Dir Wind Speed Gust Speed Precip Events Conditions
12:15 AM 46.8 °F - 45.9 °F 97% 30.12 in 3.0 mi ESE 8.1 mph - N/A Rain Light Rain
12:35 AM 48.0 °F - 47.1 °F 97% 30.11 in 1.8 mi ESE 5.8 mph - N/A   Light Drizzle
12:55 AM 47.7 °F - 46.8 °F 97% 30.10 in 0.8 mi East 4.6 mph - N/A   Overcast
1:15 AM 47.3 °F - 46.6 °F 97% 30.10 in 1.0 mi East 4.6 mph - N/A   Overcast
1:35 AM 47.1 °F - 46.4 °F 97% 30.08 in 0.2 mi ENE 5.8 mph - N/A Fog Fog
1:55 AM 47.5 °F - 46.8 °F 97% 30.06 in 0.5 mi East 8.1 mph - N/A Fog Fog
2:15 AM 48.4 °F - 47.5 °F 97% 30.05 in 1.2 mi East 5.8 mph - N/A   Overcast
2:35 AM 48.7 °F - 48.2 °F 98% 30.04 in 2.5 mi ESE 5.8 mph - N/A   Overcast
2:55 AM 48.9 °F - 48.4 °F 98% 30.03 in 5.0 mi ESE 6.9 mph - N/A   Overcast
3:15 AM 49.3 °F - 48.4 °F 97% 30.01 in 7.0 mi ESE 8.1 mph - N/A   Drizzle
3:35 AM 49.6 °F - 48.9 °F 97% 30.00 in 5.0 mi SE 6.9 mph - N/A   Drizzle
3:55 AM 50.7 °F - 49.8 °F 97% 30.00 in 7.0 mi SE 5.8 mph - 0.01 in Rain Light Rain
4:15 AM 51.4 °F - 50.5 °F 97% 29.99 in 7.0 mi SE 8.1 mph - N/A Rain Rain
4:35 AM 52.7 °F - 51.6 °F 96% 29.98 in 4.0 mi SE 5.8 mph - 0.02 in Rain Rain
4:55 AM 53.8 °F - 52.7 °F 96% 29.97 in 3.0 mi SE 8.1 mph - 0.06 in Rain Rain
5:15 AM 54.3 °F - 53.2 °F 96% 29.97 in 4.0 mi SE 8.1 mph 16.1 mph N/A Rain Rain
5:35 AM 54.5 °F - 53.6 °F 97% 29.95 in 4.0 mi SSE 9.2 mph - 0.01 in   Light Drizzle
5:55 AM 55.0 °F - 54.0 °F 96% 29.94 in 4.0 mi SE 10.4 mph - 0.01 in   Light Drizzle
6:15 AM 54.7 °F - 53.8 °F 97% 29.94 in 2.0 mi SE 9.2 mph 16.1 mph 0.01 in Rain Heavy Rain
6:35 AM 55.6 °F - 54.7 °F 97% 29.94 in 3.0 mi SSE 10.4 mph 19.6 mph 0.03 in Rain Rain
6:55 AM 56.1 °F - 55.2 °F 97% 29.93 in 3.0 mi SSE 8.1 mph 17.3 mph 0.07 in Rain Rain
7:15 AM 55.9 °F - 55.2 °F 97% 29.92 in 2.5 mi SSE 11.5 mph 19.6 mph 0.06 in Rain Rain
7:35 AM 55.9 °F - 55.2 °F 97% 29.92 in 3.0 mi SSE 8.1 mph 18.4 mph 0.13 in Rain Light Rain
7:55 AM 56.8 °F - 55.9 °F 97% 29.93 in 1.8 mi South 10.4 mph 23.0 mph 0.22 in Rain Heavy Rain
8:15 AM 55.9 °F - 55.2 °F 97% 29.93 in 1.5 mi South 4.6 mph - 0.02 in Rain Rain
8:35 AM 55.9 °F - 55.2 °F 97% 29.92 in 5.0 mi SW 3.5 mph - 0.03 in   Drizzle
8:55 AM 55.8 °F - 55.0 °F 97% 29.92 in 2.0 mi SSW 4.6 mph - 0.06 in Rain Rain
9:15 AM 55.9 °F - 55.2 °F 97% 29.91 in 1.8 mi SSW 4.6 mph - N/A Rain Rain
9:35 AM 54.9 °F - 54.0 °F 97% 29.92 in 0.5 mi West 11.5 mph 16.1 mph 0.01 in Rain Light Rain
9:55 AM 47.5 °F - 46.8 °F 97% 29.93 in 4.0 mi West 10.4 mph 16.1 mph 0.02 in   Drizzle
10:15 AM 45.1 °F 40.3 °F 44.4 °F 97% 29.92 in 3.0 mi West 9.2 mph - 0.02 in Rain Heavy Rain
10:35 AM 45.1 °F 40.8 °F 44.4 °F 97% 29.92 in 4.0 mi West 8.1 mph - 0.05 in Rain Rain
10:55 AM 45.0 °F 41.2 °F 44.2 °F 97% 29.91 in 4.0 mi West 6.9 mph - 0.07 in Rain Rain
11:15 AM 44.6 °F 42.2 °F 43.9 °F 97% 29.90 in 4.0 mi West 4.6 mph - 0.03 in Rain Light Rain
11:35 AM 44.6 °F 43.1 °F 43.9 °F 97% 29.90 in 4.0 mi West 3.5 mph - 0.04 in Rain Light Rain
11:55 AM 44.6 °F 42.2 °F 43.9 °F 97% 29.88 in 4.0 mi West 4.6 mph - 0.06 in Rain Rain
12:15 PM 44.6 °F 43.1 °F 43.7 °F 97% 29.87 in 5.0 mi West 3.5 mph - 0.01 in Rain Rain
12:35 PM 44.8 °F 41.0 °F 44.2 °F 98% 29.86 in 4.0 mi West 6.9 mph - 0.02 in Rain Light Rain
1:15 PM 44.2 °F - 43.7 °F 98% 29.83 in 7.0 mi Calm Calm - N/A   Drizzle
1:35 PM 45.0 °F 41.8 °F 44.2 °F 97% 29.82 in 7.0 mi West 5.8 mph - N/A Rain Light Rain
1:55 PM 44.2 °F 40.3 °F 43.5 °F 97% 29.84 in 4.0 mi West 6.9 mph - N/A   Light Drizzle
2:15 PM 43.7 °F 39.1 °F 43.0 °F 97% 29.83 in 5.0 mi WNW 8.1 mph - 0.01 in Rain Light Rain
2:35 PM 43.7 °F 39.1 °F 43.0 °F 97% 29.84 in 2.0 mi WNW 8.1 mph - 0.02 in Rain Heavy Rain
2:55 PM 43.5 °F 40.9 °F 43.0 °F 98% 29.81 in 3.0 mi West 4.6 mph - 0.06 in Rain Rain
3:15 PM 44.2 °F 41.8 °F 43.5 °F 97% 29.81 in 5.0 mi West 4.6 mph - N/A   Overcast
3:35 PM 44.8 °F 41.6 °F 43.9 °F 97% 29.82 in 7.0 mi West 5.8 mph - N/A Rain Rain
3:55 PM 44.4 °F 41.2 °F 43.9 °F 98% 29.81 in 2.5 mi West 5.8 mph - N/A   Drizzle
4:15 PM 44.4 °F 40.5 °F 43.7 °F 97% 29.81 in 2.0 mi West 6.9 mph - N/A   Light Drizzle
4:35 PM 44.2 °F 39.2 °F 43.7 °F 98% 29.81 in 5.0 mi West 9.2 mph - N/A   Overcast
4:55 PM 43.9 °F 39.9 °F 43.3 °F 98% 29.80 in 1.2 mi West 6.9 mph - N/A   Overcast
5:15 PM 43.7 °F 39.7 °F 43.0 °F 97% 29.80 in 0.8 mi West 6.9 mph - N/A   Overcast
5:35 PM 43.9 °F 42.3 °F 43.2 °F 97% 29.79 in 0.5 mi West 3.5 mph - N/A Fog Fog
5:55 PM 44.1 °F 41.5 °F 43.7 °F 99% 29.82 in 0.5 mi WNW 4.6 mph - N/A Fog Fog
6:15 PM 44.2 °F 41.8 °F 43.7 °F 98% 29.82 in 0.8 mi West 4.6 mph - N/A   Overcast
6:35 PM 44.4 °F - 43.9 °F 98% 29.82 in 1.2 mi Calm Calm - N/A   Overcast
6:55 PM 44.8 °F 43.3 °F 44.1 °F 97% 29.83 in 0.8 mi WNW 3.5 mph - N/A   Overcast
7:15 PM 44.6 °F - 44.1 °F 98% 29.81 in 0.8 mi Calm Calm - N/A   Overcast
7:35 PM 44.8 °F - 44.2 °F 98% 29.81 in 1.0 mi Calm Calm - N/A   Overcast
7:55 PM 45.0 °F - 44.6 °F 99% 29.81 in 1.8 mi Calm Calm - N/A   Overcast
8:15 PM 44.2 °F - 43.7 °F 98% 29.81 in 0.8 mi Calm Calm - N/A   Overcast
8:35 PM 43.9 °F - 43.3 °F 98% 29.80 in 0.5 mi Calm Calm - N/A Fog Fog
8:55 PM 43.7 °F - 43.2 °F 98% 29.80 in 0.8 mi Calm Calm - N/A   Overcast
9:15 PM 43.9 °F - 43.3 °F 98% 29.81 in 0.5 mi Calm Calm - N/A Fog Fog
9:35 PM 43.7 °F - 43.2 °F 98% 29.82 in 0.8 mi Calm Calm - N/A   Overcast
9:55 PM 43.9 °F - 43.3 °F 98% 29.82 in 0.5 mi Calm Calm - N/A Fog Fog
10:15 PM 43.9 °F 42.3 °F 43.3 °F 98% 29.83 in 3.0 mi West 3.5 mph - N/A   Overcast
10:35 PM 43.7 °F 42.1 °F 43.2 °F 98% 29.82 in 3.0 mi West 3.5 mph - N/A   Overcast
10:55 PM 43.5 °F 40.1 °F 43.0 °F 98% 29.82 in 4.0 mi West 5.8 mph - N/A   Overcast
11:15 PM 43.3 °F 40.7 °F 42.8 °F 98% 29.81 in 3.0 mi WSW 4.6 mph - N/A   Overcast
11:35 PM 43.3 °F 40.7 °F 42.8 °F 98% 29.81 in 3.0 mi West 4.6 mph - N/A   Overcast
11:55 PM 43.2 °F 40.5 °F 42.8 °F 99% 29.80 in 3.0 mi West 4.6 mph - N/A   Overcast